| Date | Temp | Humidity | Rainfall | Dew Point | Wind Direction | Wind Speed | Wind Pressure | Condition | Visibility |
|---|---|---|---|---|---|---|---|---|---|
| 2025-05-02 18:57:41 | 25 | 92 | 24 | 150 | 11.4 | 1010 | Night Shower | 10 km | |
| 2025-05-02 17:57:30 | 26 | 86 | 24 | 180 | 13.3 | 1009 | Distant showers | 10 km | |
| 2025-05-02 17:01:27 | 27 | 88 | 0 | 25 | 180 | 17.1 | 1009 | Distant showers | 20 KM |
| 2025-05-02 16:01:54 | 29 | 77 | 0 | 25 | 220 | 20.9 | 1008 | Distant showers | 20 KM |
| 2025-05-02 14:59:10 | 30 | 73 | 0 | 24 | 260 | 19.0 | 1008 | Distant showers | 20 KM |
| 2025-05-02 14:01:23 | 29 | 73 | 0 | 24 | 270 | 19.0 | 1009 | Cloudy | 20 KM |
| 2025-05-02 13:03:19 | 29 | 74 | 0 | 24 | 300 | 11.4 | 1010 | Cloudy | 20 KM |
| 2025-05-02 12:02:20 | 29 | 81 | 25 | 250 | 7.6 | 1011 | Cloudy | 15 KM | |
| 2025-05-02 10:59:14 | 27 | 86 | 25 | 250 | 5.7 | 1011 | Rain | 10 KM | |
| 2025-05-02 10:01:37 | 26 | 89 | 0.00 | 25 | 200 | 9.5 | 1011 | Rain | 10 KM |
| 2025-05-02 08:02:44 | 26 | 89 | 0.01 | 24 | 200 | 3.8 | 1011 | Thundershowers | 10 km |
| 2025-05-02 05:59:40 | 25 | 95 | 0.01 | 24 | 240 | 3.8 | 1010 | Thundershowers | 09 km |
| 2025-05-02 05:04:39 | 26 | 94 | 0.0 | 25 | 240 | 7.6 | 1009 | Night Shower | 08 km |
| 2025-05-02 04:00:52 | 26 | 94 | 0.0 | 25 | 160 | 3.8 | 1009 | Night Thunderstorm | 10 km |
| 2025-05-02 03:01:40 | 26 | 93 | 0.0 | 25 | 160 | 5.7 | 1009 | Night Thunderstorm | 10 km |
| 2025-05-02 02:04:35 | 26 | 92 | 0.01 | 25 | 170 | 3.8 | 1009 | Rain | 10 Km |
| 2025-05-02 01:02:19 | 26 | 92 | 0.01 | 25 | 170 | 7.6 | 1010 | Thundershowers | 10 KM |
| 2025-05-02 00:01:49 | 26 | 93 | 0.01 | 24 | 170 | 5.7 | 1010 | Thundershowers | 09 Km |
| 2025-05-01 23:00:40 | 26 | 91 | 0.01 | 24 | 240 | 13.3 | 1011 | Thundershowers | 06 km |
| 2025-05-01 22:01:30 | 28 | 84 | 0.00` | 25 | 190 | 11.4 | 1010 | Night Thunderstorm | 10 km |
| 2025-05-01 20:58:51 | 29 | 79 | 25 | 330 | 3.8 | 1010 | Thundershowers | 10 km | |
| 2025-05-01 20:00:28 | 30 | 75 | 25 | 350 | 5.7 | 1009 | Lightning | 10 km | |
| 2025-05-01 19:00:18 | 30 | 77 | 25 | 360 | 5.7 | 1009 | Lightning | 10 km | |
| 2025-05-01 17:59:30 | 30 | 74 | 25 | 300 | 9.5 | 1008 | Thunderstorm | 15 km | |
| 2025-05-01 17:01:50 | 31 | 64 | 23 | 320 | 11.4 | 1007 | Thunderstorm | 15 km |